User: anonymous
Location: Caltech
(34.1382°N, 118.1253°W)
Time: 20:57:38
(UTC-07:00)
Language:

SPOT 1/Viking Rocket - Orbit

View from above orbital plane
View from above orbital plane
View from above satellite
View from above satellite

Ground track
Ground track

The orbit data is extracted from the following two-line orbital elements,

1 16615U 86019C   14114.72398384  .00000250  00000-0  11180-3 0  3702
2 16615 098.7633 165.3712 0012323 176.8894 291.1907 14.31243380475044
Epoch (UTC): 24 April 2014 17:22:32
Eccentricity: 0.0012323
inclination: 98.7633°
perigee height: 779 km
apogee height: 796 km
right ascension of ascending node: 165.3712°
argument of perigee: 176.8894°
revolutions per day: 14.31243380
mean anomaly at epoch: 291.1907°
orbit number at epoch: 47504

The dashed part of the orbit path shows where the satellite is in the earth's shadow,  

DLR